Weather past 2 weeks in Mamoutzou, Mayotte

Now
84 °F

Scattered clouds.


Feels Like: 87 °F
Forecast: 70 / 78 °F
Wind: 13 mph from Northeast

Location: Dzaoudzi / Pamanzi Mayotte

Current Time: Aug 23, 2014 at 12:37:54 PM

Latest Report: Aug 23, 2014 at 12:00 PM


Visibility: N/A

Pressure: 29.92 "Hg

Humidity: 58%

Dew point: 68 °F

Location of MamoutzouLocation

Historic Weather in Mamoutzou — Graph

°F

Mamoutzou temperature yesterday

Maximum temperature yesterday: 84 °F (at 10:00 AM)
Minimum temperature yesterday: 73 °F (at 12:30 AM)
Average temperature yesterday: 78 °F

Past Weeks' High & Low Weather Summary

 TemperatureHumidityPressure
High86 °F (Aug 12, 1:00 PM)94% (Aug 10, 1:00 AM)30.12 "Hg (Aug 10, 1:00 AM)
Low70 °F (Aug 10, 1:00 AM)51% (Aug 17, 11:30 AM)29.86 "Hg (Aug 23, 4:30 AM)
Average77 °F74%30.03 "Hg
* Reported Aug 8 11:00 AM — Aug 23 11:30 AM, Mamoutzou, Weather by CustomWeather, © 2014

Note: Actual official high and low records may vary slightly from our data, if they occured in-between our weather recording intervals... More about our weather records

Advertising

Mamoutzou weather history for previous 24 hours

 ConditionsComfort  
Time TempWeatherWind HumidityBarometerVisibility
11:30 AM
Aug 23
86 °FScattered clouds.13 mph59%29.92 "HgN/A
11:00 AM84 °FScattered clouds.14 mph62%29.95 "HgN/A
10:30 AM84 °FScattered clouds.12 mph62%29.95 "HgN/A
10:00 AM84 °FScattered clouds.8 mph62%29.95 "HgN/A
9:30 AM82 °FScattered clouds.9 mph66%29.95 "HgN/A
9:00 AM82 °FScattered clouds.8 mph66%29.95 "HgN/A
8:30 AM82 °FScattered clouds.9 mph62%29.95 "HgN/A
8:04 AM81 °FScattered clouds.8 mph70%29.92 "HgN/A
7:30 AM79 °FPartly sunny.7 mph70%29.92 "HgN/A
7:00 AM77 °FScattered clouds.7 mph74%29.92 "HgN/A
6:30 AM75 °FScattered clouds.8 mph78%29.92 "HgN/A
6:00 AM75 °FPassing clouds.5 mph78%29.89 "HgN/A
5:30 AM75 °FPassing clouds.8 mph78%29.89 "HgN/A
5:00 AM75 °FPassing clouds.6 mph78%29.89 "HgN/A
4:30 AM75 °FMild.7 mph78%29.86 "HgN/A
4:00 AM75 °FPassing clouds.5 mph78%29.89 "HgN/A
3:30 AM75 °FPassing clouds.5 mph78%29.89 "HgN/A
3:00 AM75 °FPassing clouds.6 mph78%29.89 "HgN/A
2:30 AM75 °FPassing clouds.8 mph78%29.89 "HgN/A
2:00 AM75 °FPassing clouds.6 mph78%29.89 "HgN/A
1:30 AM75 °FPassing clouds.7 mph78%29.89 "HgN/A
1:00 AM75 °FPassing clouds.6 mph78%29.92 "HgN/A
12:30 AM73 °FPassing clouds.5 mph83%29.92 "HgN/A
12:00 AM75 °FPassing clouds.6 mph78%29.92 "HgN/A
11:30 PM
Aug 22
73 °FPassing clouds.6 mph83%29.95 "HgN/A
11:00 PM73 °FPassing clouds.3 mph83%29.95 "HgN/A
10:30 PM73 °FPassing clouds.3 mph89%29.95 "HgN/A
10:00 PM75 °FMild.3 mph78%29.95 "HgN/A
9:30 PM75 °FMild.7 mph83%29.95 "HgN/A
9:00 PM77 °FPassing clouds.6 mph79%29.95 "HgN/A
8:30 PM77 °FPassing clouds.5 mph79%29.95 "HgN/A
8:00 PM77 °FPartly cloudy.6 mph79%29.95 "HgN/A
7:30 PM77 °FPassing clouds.6 mph74%29.95 "HgN/A
7:00 PM77 °FWarm.5 mph74%29.92 "HgN/A
6:30 PM79 °FPassing clouds.6 mph70%29.92 "HgN/A
6:00 PM79 °FPassing clouds.7 mph70%29.92 "HgN/A
5:30 PM79 °FPartly sunny.7 mph70%29.92 "HgN/A
5:00 PM79 °FPartly sunny.9 mph70%29.89 "HgN/A
4:30 PM81 °FPartly sunny.10 mph66%29.89 "HgN/A
4:00 PM82 °FScattered clouds.12 mph66%29.89 "HgN/A
3:30 PM81 °FPartly sunny.10 mph66%29.89 "HgN/A
3:00 PM81 °FScattered showers. Partly sunny.12 mph66%29.89 "Hg5 mi
2:30 PM82 °FScattered showers. Partly sunny.12 mph66%29.89 "Hg5 mi
2:00 PM82 °FScattered clouds.13 mph66%29.89 "HgN/A
1:30 PM82 °FScattered showers. Scattered clouds.10 mph62%29.92 "HgN/A
1:00 PM82 °FScattered showers. Scattered clouds.10 mph66%29.92 "HgN/A
12:30 PM81 °FScattered showers. Scattered clouds.12 mph66%29.92 "HgN/A
12:06 PM82 °FScattered showers. Scattered clouds.12 mph62%29.95 "HgN/A
Weather by CustomWeather, © 2014

See weather overviewHow to use our weather pages